Regional Weather Roundup
Issued by NWS

Home | Current Version | Previous Version | Text Only | Print | Product List | Glossary Off
Versions: 1 2 3 4 5 6 7 8 9 10 11 12 13 14 15 16 17 18 19 20 21 22 23 24 25 26 27 28 29 30 31 32 33 34 35 36 37 38 39 40 41 42 43 44 45 46 47 48 49 50

000
ASUS43 KLSX 240410
RWRMO

WEATHER SUMMARY FOR MISSOURI
NATIONAL WEATHER SERVICE SPRINGFIELD MO
1100 PM CDT SUN APR 23 2017

NOTE: "FAIR" INDICATES FEW OR NO CLOUDS BELOW 12,000 FEET WITH NO
       SIGNIFICANT WEATHER AND/OR OBSTRUCTIONS TO VISIBILITY.
       CURRENT SKY AND/OR WEATHER CONDITIONS ARE NOT AVAILABLE FOR
       CHILLICOTHE AND FARMINGTON.

MOZ001>031-035>038-043-044-053-054-240500-
...NORTHERN AND WESTERN MISSOURI...

CITY           SKY/WX    TMP DP  RH WIND       PRES   REMARKS
KANSAS CTY INT PTCLDY    52  35  52 S8        29.99F
KANSAS C DTWN  CLOUDY    57  35  43 S7        29.98F
LEE`S SUMMIT   PTCLDY    57  35  43 S6        30.00F
ST JOSEPH      CLOUDY    53  40  61 S6        29.98S
CHILLICOTHE      N/A     49  40  71 CALM      30.00F
KIRKSVILLE     CLOUDY    52  32  46 S3        30.01F

$$
MOZ066>068-077>081-088>096-101>105-240500-
...SOUTHWEST MISSOURI...

CITY           SKY/WX    TMP DP  RH WIND       PRES   REMARKS
SPRINGFIELD    CLEAR     49  39  68 CALM      29.98F
JOPLIN         CLEAR     46  43  89 CALM      30.00S
BRANSON        CLEAR     50  36  57 CALM      29.99

$$
MOZ032>034-039>042-045>050-055>058-069>072-240500-
...CENTRAL MISSOURI...

CITY           SKY/WX    TMP DP  RH WIND       PRES   REMARKS
COLUMBIA       CLEAR     56  29  35 NE3       30.00F
JEFFERSON CITY CLEAR     50  38  63 CALM      30.00F
ROLLA          CLEAR     48  35  60 E3        29.99S
WHITEMAN AFB   CLOUDY    52  37  56 CALM      29.98F
OSAGE BEACH    CLEAR     45  39  79 CALM      30.00

$$
MOZ051-052-059>065-240500-
...EAST CENTRAL MISSOURI...

CITY           SKY/WX    TMP DP  RH WIND       PRES   REMARKS
ST LOUIS INTL  CLEAR     56  36  47 CALM      30.00F
SPIRIT OF STL  CLEAR     46  41  82 CALM      29.99F
ST CHARLES     CLEAR     51  39  63 CALM      29.98F

$$
MOZ072>076-082>087-097>100-106>115-240500-
...SOUTH CENTRAL AND SOUTHEAST MISSOURI...

CITY           SKY/WX    TMP DP  RH WIND       PRES   REMARKS
CAPE GIRARDEAU CLEAR     51  40  65 SW3       29.94F
FARMINGTON     CLEAR     48  38  68 CALM      29.98
POPLAR BLUFF   CLEAR     52  41  66 CALM      29.95F
WEST PLAINS    CLEAR     51  34  52 CALM      30.00F

$$



USA.gov is the U.S. government's official web portal to all federal, state and local government web resources and services.